STARLINK-3278 (50830 NORAD) Tracking and Keplerian Element Data

This shows tracking and keplerian element data for the satellite.

Feedback or suggestion? Click here.




ElementValue
Catalog50830
NameSTARLINK-3278
Epoch Orbit388
Epoch Day23.25001157
Epoch Year2022
RAAN118.1034
Inclination53.2176
Eccentricity0.0001262
Argument of Perigee45.4845
Mean Anonmoly1.6548
Mean Motion15.74710267
Decay Rate-0.00818051
L11 50830U 22001AD 22023.25001157 -.00818051 00000+0 -60077-2 0 9997
L22 50830 53.2176 118.1034 0001262 45.4845 1.6548 15.74710267 3884

Live tracking and technical data element details for STARLINK-3278 (NORAD 50830). STARLINK-3278 can be tracked NOW for your location showing map with azimuth and elevation plus other details from your city location.

Track the satellite on the map from your city or location and see movement details for azimuth, elevation, latitude, longitude, range, height, and movement on the map or in text.







IsCatalogInMostPopularTable: catalog: 50830, numindb: 2
Update: records affected: 1



GetName: 50830 STARLINK-3278

Hit Count: updated at: Mon, 24 Jan 2022 00:36:42 GMT